Flag for Austria Weather past 2 weeks in Baden, Lower Austria, Austria

Now
37 °F

Clear.


Feels Like: 30 °F
Forecast: 29 / 46 °F
Wind: 10 mph from South

Location: Vienna Schwechat-Flughafen Airport

Current Time: Mar 3, 2015 at 10:05:06 PM

Latest Report: Mar 3, 2015 at 9:20 PM


Visibility: 10 mi

Pressure: 30.21 "Hg

Humidity: 60%

Dew point: 25 °F

Location of BadenLocation

Historic Weather in Baden — Graph

°F

Baden temperature yesterday

Maximum temperature yesterday: 57 °F (at 11:50 AM)
Minimum temperature yesterday: 41 °F (at 1:20 AM)
Average temperature yesterday: 45 °F

Past Weeks' High & Low Weather Summary

 TemperatureHumidityPressure
High57 °F (Mar 2, 11:50 AM)100% (Feb 20, 12:20 AM)30.74 "Hg (Feb 20, 12:20 AM)
Low23 °F (Feb 20, 5:20 AM)32% (Feb 21, 2:20 PM)29.56 "Hg (Feb 21, 5:20 PM)
Average39 °F78%30.03 "Hg
* Reported Feb 16 8:20 PM — Mar 3 8:20 PM, Baden, Weather by CustomWeather, © 2015

Note: Actual official high and low records may vary slightly from our data, if they occured in-between our weather recording intervals... More about our weather records

Advertising

Baden weather history for previous 24 hours

 ConditionsComfort  
Time TempWeatherWind HumidityBarometerVisibility
8:20 PM
Tue, Mar 3
36 °FClear.8 mph65%30.21 "Hg10 mi
7:50 PM43 °FClear.5 mph46%30.21 "Hg10 mi
7:20 PM43 °FClear.6 mph46%30.21 "Hg10 mi
6:50 PM45 °FClear.7 mph46%30.21 "Hg10 mi
6:20 PM45 °FClear.8 mph46%30.21 "Hg10 mi
5:50 PM45 °FClear.9 mph46%30.21 "Hg10 mi
5:20 PM46 °FSunny.12 mph43%30.18 "Hg10 mi
4:50 PM48 °FSunny.16 mph40%30.18 "Hg10 mi
4:20 PM48 °FSunny.18 mph40%30.18 "Hg10 mi
3:50 PM48 °FSunny.18 mph40%30.18 "Hg10 mi
3:20 PM48 °FSunny.21 mph40%30.18 "Hg10 mi
2:50 PM48 °FSunny.22 mph43%30.18 "Hg10 mi
2:20 PM50 °FPassing clouds.21 mph40%30.18 "HgN/A
1:50 PM48 °FSunny.22 mph43%30.18 "Hg10 mi
1:20 PM48 °FPassing clouds.22 mph40%30.18 "HgN/A
12:50 PM48 °FPassing clouds.20 mph43%30.18 "HgN/A
12:20 PM46 °FPassing clouds.21 mph43%30.21 "HgN/A
11:50 AM46 °FPassing clouds.23 mph46%30.21 "HgN/A
11:20 AM46 °FPassing clouds.20 mph46%30.18 "HgN/A
10:50 AM45 °FPassing clouds.22 mph46%30.18 "HgN/A
10:20 AM43 °FPassing clouds.21 mph49%30.18 "HgN/A
9:50 AM43 °FPassing clouds.22 mph53%30.18 "HgN/A
9:20 AM41 °FPassing clouds.21 mph57%30.18 "HgN/A
8:50 AM41 °FPassing clouds.21 mph61%30.18 "HgN/A
8:20 AM41 °FPassing clouds.18 mph61%30.15 "HgN/A
7:50 AM39 °FPassing clouds.14 mph65%30.15 "HgN/A
7:20 AM39 °FPassing clouds.13 mph65%30.15 "HgN/A
6:50 AM37 °FPassing clouds.18 mph75%30.12 "HgN/A
6:20 AM37 °FPassing clouds.22 mph75%30.09 "HgN/A
5:50 AM37 °FPassing clouds.15 mph75%30.09 "HgN/A
5:20 AM37 °FPassing clouds.13 mph70%30.09 "HgN/A
4:50 AM37 °FPassing clouds.16 mph70%30.09 "HgN/A
4:20 AM37 °FPassing clouds.17 mph70%30.09 "HgN/A
3:50 AM39 °FPassing clouds.18 mph65%30.07 "HgN/A
3:20 AM39 °FPassing clouds.26 mph70%30.04 "HgN/A
2:50 AM39 °FPartly cloudy.26 mph81%30.01 "HgN/A
2:20 AM41 °FLight rain. Partly cloudy.35 mph70%29.98 "HgN/A
1:50 AM43 °FPartly cloudy.32 mph61%29.95 "HgN/A
1:20 AM43 °FPartly cloudy.28 mph61%29.95 "HgN/A
12:50 AM45 °FPartly cloudy.28 mph57%29.92 "HgN/A
12:20 AM43 °FPassing clouds.14 mph66%29.89 "HgN/A
11:50 PM
Mon, Mar 2
41 °FPassing clouds.3 mph70%29.89 "HgN/A
11:20 PM43 °FPassing clouds.6 mph66%29.89 "HgN/A
10:50 PM41 °FPassing clouds.5 mph70%29.89 "HgN/A
10:20 PM43 °FPassing clouds.7 mph66%29.86 "HgN/A
Weather by CustomWeather, © 2015

See weather overviewHow to use our weather pages